Flag for Germany Weather past 2 weeks in Lage, North Rhine-Westphalia, Germany

Now
51 °F

Overcast.


Feels Like: 51 °F
Forecast: 45 / 56 °F
Wind: 1 mph from South

Location: Bad Lippspringe

Current Time: May 25, 2015 at 10:16:53 AM

Latest Report: May 25, 2015 at 9:00 AM


Visibility: 3 mi

Pressure: 30.00 "Hg

Humidity: 88%

Dew point: 47 °F

Location of LageLocation

Historic Weather in Lage — Graph

°F

Lage temperature yesterday

Maximum temperature yesterday: 67 °F (at 5:00 PM)
Minimum temperature yesterday: 42 °F (at 3:00 AM)
Average temperature yesterday: 55 °F

Past Weeks' High & Low Weather Summary

 TemperatureHumidityPressure
High78 °F (May 12, 1:00 PM)98% (May 17, 5:00 AM)30.35 "Hg (May 17, 5:00 AM)
Low35 °F (May 17, 5:00 AM)37% (May 10, 5:00 PM)29.62 "Hg (May 18, 9:00 PM)
Average54 °F67%30.08 "Hg
* Reported May 10 9:00 AM — May 25 9:00 AM, Lage, Weather by CustomWeather, © 2015

Note: Actual official high and low records may vary slightly from our data, if they occured in-between our weather recording intervals... More about our weather records

Advertising

Lage weather history for previous 24 hours

 ConditionsComfort  
Time TempWeatherWind HumidityBarometerVisibility
9:00 AM
Mon, May 25
51 °FOvercast.1 mph88%30.00 "Hg3 mi
8:00 AM49 °FLight rain. Overcast.1 mph87%30.00 "Hg3 mi
7:00 AM47 °FLight rain. Overcast.No wind93%30.00 "Hg3 mi
6:00 AM44 °FFog.No wind97%30.00 "Hg4 mi
5:00 AM41 °FFog.1 mph97%30.00 "Hg4 mi
4:00 AM42 °FClear.1 mph95%30.01 "Hg7 mi
3:00 AM41 °FClear.1 mph97%30.01 "Hg5 mi
2:00 AM43 °FClear.1 mph96%30.03 "Hg7 mi
1:00 AM45 °FClear.1 mph94%30.03 "Hg7 mi
12:00 AM46 °FPassing clouds.1 mph94%30.04 "Hg7 mi
11:00 PM
Sun, May 24
47 °FClear.1 mph94%30.05 "Hg7 mi
10:00 PM52 °FPassing clouds.1 mph84%30.04 "Hg11 mi
9:00 PM62 °FPassing clouds.3 mph57%30.02 "Hg16 mi
8:00 PM64 °FPartly sunny.2 mph60%30.02 "Hg17 mi
7:00 PM64 °FScattered clouds.3 mph57%30.03 "Hg17 mi
6:00 PM65 °FPassing clouds.2 mph54%30.04 "Hg17 mi
5:00 PM67 °FPassing clouds.2 mph53%30.04 "Hg16 mi
4:00 PM64 °FOvercast.2 mph55%30.07 "Hg17 mi
3:00 PM64 °FOvercast.2 mph57%30.08 "Hg14 mi
2:00 PM63 °FPartly sunny.2 mph57%30.10 "Hg14 mi
1:00 PM61 °FOvercast.2 mph59%30.10 "Hg14 mi
12:00 PM61 °FOvercast.2 mph57%30.12 "Hg15 mi
11:00 AM59 °FOvercast.2 mph62%30.13 "Hg16 mi
10:00 AM56 °FOvercast.1 mph64%30.14 "Hg16 mi
Weather by CustomWeather, © 2015

See weather overviewHow to use our weather pages